GFSSW_700_temp_021.txt.gz
Temp
6 6 6 6 6 7 6 7 7 7 7 7 8 8 9 9 9 9 10 10 9 8 11 10 10 11 10 11 10 9 8 10 12 13 14 13 13 12 12 12 12 12 12 11 11
6 6 6 6 7 7 7 7 7 7 7 7 7 7 8 8 9 9 10 9 9 8 9 10 10 10 10 10 10 10 9 10 13 13 13 12 12 11 11 12 13 12 12 11 11
6 6 6 6 6 6 7 7 7 7 7 8 7 7 8 8 8 9 9 9 9 8 8 9 9 9 8 9 10 11 10 12 12 12 12 11 12 11 11 12 13 12 13 12 12
6 6 6 6 6 6 6 6 6 7 7 7 7 8 8 7 7 8 9 9 10 9 9 8 8 9 8 9 10 10 11 12 12 11 10 11 11 11 10 13 13 13 12 12 12
5 5 5 5 5 5 5 5 5 6 6 7 7 7 7 8 8 7 7 8 9 9 9 9 9 9 8 9 10 10 10 11 12 11 11 10 11 11 12 13 13 12 12 12 12
3 3 3 3 3 3 4 4 4 5 5 6 7 7 6 8 8 7 7 7 7 8 9 9 9 9 9 9 9 9 9 10 10 10 11 10 11 9 12 12 12 12 12 12 11
1 1 1 1 1 1 1 1 1 2 4 4 5 5 7 8 6 7 7 7 7 7 7 7 8 8 9 9 9 9 9 9 9 10 10 10 10 10 12 12 12 12 12 12 12
-0 -1 -1 -1 -1 -1 -1 -1 -0 0 0 0 2 3 6 6 7 6 6 6 6 6 7 6 7 7 7 7 7 8 8 7 8 10 10 9 10 11 12 11 11 11 12 12 12
-1 -2 -2 -2 -2 -2 -2 -2 -2 -1 -1 -1 -0 1 3 4 5 6 6 6 6 5 5 6 6 6 7 6 6 7 8 8 7 8 9 10 11 10 11 11 11 11 11 11 11
-1 -1 -1 -2 -3 -3 -3 -3 -2 -2 -2 -2 -1 -1 1 2 2 5 6 6 6 6 5 5 5 5 6 4 5 6 4 6 6 7 10 10 10 10 11 11 11 11 11 11 12
-2 -2 -2 -2 -2 -2 -3 -3 -3 -3 -2 -2 -2 -1 -1 0 2 2 3 3 5 5 6 5 5 6 7 7 7 7 6 6 7 9 9 10 10 9 11 11 11 11 11 12 12
-3 -3 -3 -4 -4 -4 -4 -3 -3 -4 -3 -2 -2 -2 -1 -1 -0 2 2 2 3 5 5 3 5 9 7 6 6 6 6 6 6 8 9 9 9 9 10 11 10 10 12 12 13
-4 -5 -5 -4 -4 -5 -4 -4 -5 -5 -5 -1 -1 -1 -1 -1 -1 1 0 1 2 3 5 6 10 7 6 6 4 5 5 5 6 7 7 7 7 7 10 10 10 11 12 12 12
-5 -5 -5 -5 -5 -5 -5 -5 -5 -5 -6 -2 -2 -4 -3 -3 -3 -1 1 0 0 2 3 3 6 5 6 6 4 4 6 5 5 5 7 7 8 8 9 9 10 12 12 12 12
-5 -5 -5 -5 -5 -5 -5 -5 -6 -6 -4 -3 -3 -4 -4 -4 -4 -1 -1 0 0 0 1 5 3 3 4 5 5 6 5 5 5 5 5 6 6 7 8 10 11 12 12 12 12
-5 -5 -5 -5 -5 -6 -7 -7 -7 -7 -5 -4 -4 -4 -4 -4 -3 -2 -3 -2 -0 -0 1 3 4 5 7 5 5 6 5 5 5 5 6 6 6 7 8 11 12 12 12 12 13
-6 -5 -5 -6 -6 -6 -7 -7 -8 -7 -5 -5 -5 -5 -4 -4 -3 -4 -3 -3 -1 -1 0 1 3 5 5 4 4 4 5 6 6 5 6 7 6 7 10 11 11 12 12 12 12
-6 -5 -6 -7 -7 -7 -7 -8 -8 -6 -6 -6 -6 -5 -4 -5 -4 -6 -4 -3 -2 -0 2 2 3 3 5 5 5 4 5 7 6 7 9 6 7 8 12 12 11 12 12 12 12
-5 -5 -6 -7 -7 -7 -7 -9 -8 -7 -7 -7 -6 -5 -4 -5 -5 -5 -6 -4 -2 -1 -1 2 4 5 4 5 5 4 5 6 7 6 8 7 8 9 11 12 12 12 12 13 13
-5 -6 -7 -6 -7 -7 -8 -8 -8 -8 -8 -8 -7 -6 -6 -6 -5 -5 -6 -5 -4 -3 -3 -0 2 4 4 5 5 6 5 4 6 8 7 8 8 10 11 12 12 13 13 13 13
-6 -6 -7 -7 -7 -8 -8 -8 -8 -8 -8 -8 -7 -7 -7 -6 -5 -5 -5 -6 -6 -4 -2 -1 0 4 4 5 6 5 5 6 6 7 9 9 10 10 12 12 12 12 13 13 13
-6 -7 -7 -7 -7 -8 -8 -8 -8 -8 -8 -8 -7 -7 -8 -7 -6 -6 -5 -6 -6 -5 -4 -1 -0 3 5 5 5 6 6 5 7 6 7 8 10 11 11 12 12 12 13 12 12
-6 -6 -7 -7 -7 -7 -7 -8 -8 -8 -8 -8 -8 -8 -7 -7 -7 -6 -5 -6 -6 -5 -5 -4 -1 3 4 4 5 5 5 5 6 7 7 9 10 11 11 12 12 12 12 12 12
-6 -7 -7 -7 -8 -8 -8 -7 -7 -8 -8 -8 -7 -7 -7 -7 -6 -6 -6 -6 -6 -6 -5 -5 -4 -1 5 5 5 5 5 5 5 7 7 7 9 10 11 12 12 12 12 12 12
-7 -8 -8 -8 -8 -8 -8 -8 -8 -8 -8 -8 -7 -7 -7 -7 -7 -6 -6 -6 -6 -5 -5 -4 -4 -2 -1 2 2 3 5 5 5 6 7 7 7 11 12 11 11 12 12 12 12
-7 -8 -7 -7 -8 -8 -9 -9 -8 -9 -9 -8 -8 -8 -7 -7 -8 -7 -6 -6 -5 -6 -5 -5 -4 -3 2 1 1 2 3 5 5 6 7 7 8 9 10 11 11 12 12 12 11
-7 -7 -7 -7 -7 -8 -8 -8 -8 -8 -8 -8 -8 -7 -6 -6 -6 -6 -6 -6 -6 -6 -5 -5 -4 -3 2 1 2 3 4 4 5 6 6 7 9 9 9 11 11 12 12 12 11

GFSSW_700_temp_024.txt.gz
Temp
6 6 7 7 7 7 7 7 7 7 7 7 7 8 8 8 9 9 10 10 9 9 9 9 10 10 9 10 10 10 9 11 13 13 13 12 12 12 12 12 12 11 12 12 12
6 6 6 7 7 7 7 7 7 7 7 7 7 7 8 8 8 9 9 9 9 9 9 9 8 9 9 10 9 9 10 11 12 12 12 12 11 11 11 11 11 11 12 11 12
6 6 6 6 6 7 7 7 7 7 8 8 8 8 8 8 8 9 9 8 9 9 9 8 9 8 8 8 8 9 10 11 12 12 11 11 11 11 11 11 12 11 11 11 11
5 6 6 6 6 6 6 6 7 7 7 7 8 8 8 8 7 8 9 9 9 10 9 9 9 9 9 9 8 9 10 10 10 11 11 10 10 10 11 10 12 11 10 12 12
3 3 3 3 3 3 3 4 5 5 6 7 7 7 7 7 8 8 8 9 9 9 9 9 8 9 8 9 9 9 9 9 9 9 9 9 10 11 10 10 13 12 12 12 12
2 2 1 1 1 2 2 2 2 3 4 4 5 6 6 7 7 7 7 7 7 8 8 9 8 9 8 8 9 9 9 9 9 9 10 10 10 10 10 12 13 11 12 12 11
0 0 1 1 1 1 0 0 0 0 1 1 2 4 5 7 6 6 6 7 7 7 7 7 8 8 8 7 8 8 9 9 8 9 9 10 10 10 11 12 12 12 12 11 12
-1 -1 -1 -1 -1 -1 -0 -0 -0 -0 -0 -0 -0 1 4 4 5 5 5 6 6 6 6 7 7 7 7 6 7 7 8 9 9 9 9 9 10 11 11 11 11 11 11 12 12
-1 -1 -0 -0 -0 -1 -2 -2 -1 -1 -1 -1 -1 -1 1 3 4 5 5 5 5 5 6 5 5 6 6 5 6 8 8 9 9 10 9 9 10 11 11 11 10 11 11 11 12
-1 -1 -1 -1 -1 -1 -1 -1 -1 -2 -2 -2 -2 -2 -0 0 1 1 3 4 4 4 4 5 4 4 4 6 7 9 9 9 10 11 9 9 10 10 11 10 10 10 10 10 11
-2 -2 -2 -2 -2 -2 -2 -2 -2 -4 -1 -2 -3 -1 -1 -1 -0 0 0 0 3 4 4 4 3 4 6 6 7 8 10 10 10 10 10 9 10 10 11 10 9 10 10 10 11
-3 -3 -3 -3 -4 -4 -4 -3 -3 -4 -3 -2 -1 -2 -1 -1 -2 -0 -1 -1 -1 1 1 3 3 8 6 6 7 7 8 9 10 10 9 9 9 10 10 10 9 10 10 10 11
-4 -4 -4 -4 -4 -4 -4 -4 -4 -4 -5 -1 -1 -2 -2 -1 -2 -0 -1 -1 -1 -0 1 4 7 5 6 7 7 7 7 8 9 9 9 8 8 8 9 9 10 10 10 11 12
-4 -4 -4 -4 -5 -5 -5 -5 -5 -5 -6 -3 -3 -4 -3 -3 -2 -2 -1 -1 -1 -0 1 2 5 6 6 7 7 8 7 7 7 8 8 9 10 9 10 10 10 10 10 10 11
-5 -5 -5 -5 -5 -5 -6 -6 -6 -6 -2 -3 -4 -4 -4 -3 -3 -3 -3 -2 -1 0 1 3 4 5 6 7 7 7 8 7 7 7 7 8 9 9 9 9 9 10 10 11 11
-5 -5 -5 -5 -5 -6 -6 -6 -7 -7 -2 -2 -3 -3 -3 -2 -3 -3 -3 -3 -2 -1 1 2 4 4 6 7 7 7 7 7 7 7 9 8 8 9 9 10 10 10 11 11 12
-5 -5 -4 -5 -6 -6 -6 -7 -7 -5 -3 -3 -4 -4 -3 -2 -3 -4 -3 -2 -1 -1 0 2 3 4 5 6 6 6 6 9 9 9 10 9 9 9 10 10 10 10 11 11 12
-5 -5 -5 -6 -6 -6 -6 -8 -6 -4 -4 -4 -5 -5 -3 -2 -3 -4 -3 -3 -1 -0 2 2 3 3 5 6 7 6 7 11 10 11 12 10 10 10 10 10 10 10 10 11 12
-5 -5 -6 -6 -5 -7 -7 -7 -5 -6 -6 -6 -6 -4 -3 -2 -3 -3 -3 -4 -4 -2 1 4 4 5 5 6 7 7 7 9 11 10 12 12 10 10 11 10 10 10 10 12 12
-5 -5 -6 -6 -6 -7 -7 -7 -7 -7 -7 -7 -6 -5 -4 -3 -3 -2 -3 -5 -5 -5 -4 0 2 5 5 6 7 7 7 8 9 10 10 13 11 12 12 11 11 11 12 12 12
-5 -6 -6 -7 -7 -7 -8 -8 -7 -7 -7 -7 -6 -6 -5 -4 -4 -3 -4 -5 -5 -5 -5 -2 -0 5 5 6 7 7 8 8 9 10 12 12 13 11 11 12 12 12 12 13 13
-5 -7 -7 -7 -7 -7 -8 -8 -7 -7 -7 -7 -7 -7 -6 -6 -5 -4 -3 -4 -5 -5 -4 -2 -0 3 5 6 7 8 8 8 9 9 10 12 13 11 11 11 11 11 13 13 13
-6 -6 -6 -7 -8 -8 -9 -8 -8 -8 -7 -7 -7 -7 -6 -6 -5 -5 -5 -5 -5 -5 -5 -4 -1 3 5 6 6 7 8 8 8 10 9 12 12 11 11 12 12 12 12 12 12
-6 -6 -7 -7 -8 -9 -9 -8 -7 -8 -8 -8 -7 -7 -7 -6 -5 -5 -6 -6 -5 -6 -5 -5 -3 2 6 7 7 7 8 8 8 9 10 10 11 11 11 11 11 12 12 12 12
-6 -6 -6 -7 -8 -8 -9 -9 -8 -8 -8 -7 -7 -7 -7 -7 -6 -6 -6 -6 -5 -5 -5 -4 -1 1 1 2 3 5 7 8 8 8 10 10 10 11 11 10 10 11 11 12 12
-5 -6 -6 -6 -8 -8 -8 -8 -8 -8 -8 -8 -7 -7 -7 -6 -6 -6 -6 -6 -6 -5 -5 -4 -2 1 1 2 3 4 6 7 7 8 8 9 9 9 10 10 10 11 11 12 12
-5 -5 -6 -6 -7 -8 -8 -8 -8 -8 -7 -8 -8 -8 -7 -7 -7 -7 -7 -7 -6 -6 -5 -4 -4 -1 2 3 4 5 6 7 7 7 8 8 9 9 9 10 9 11 12 12 12

GFSSW_700_temp_030.txt.gz
Temp
6 6 6 6 6 7 7 7 8 8 7 8 8 8 8 8 9 9 10 10 10 10 9 9 9 10 10 9 8 8 9 10 12 14 15 15 15 16 15 15 15 14 14 14 14
6 6 6 6 6 7 7 7 7 8 8 8 8 8 8 8 8 9 10 10 9 9 9 9 9 9 9 10 9 8 9 11 12 13 14 15 15 15 14 14 14 14 14 14 14
6 6 6 6 7 7 7 7 7 7 7 8 8 8 8 8 8 9 9 9 9 8 9 9 9 8 8 8 8 9 9 10 12 13 14 14 14 14 14 14 14 13 13 14 13
4 4 5 5 6 6 7 7 7 7 7 7 7 8 8 8 6 7 7 8 9 8 8 8 9 9 7 8 9 9 10 10 11 12 13 13 13 13 13 14 14 14 14 13 13
2 2 3 3 3 3 4 5 6 7 7 7 7 7 7 7 8 7 7 7 7 8 9 8 8 9 9 8 9 10 10 11 11 12 12 13 13 13 13 13 13 13 13 13 13
1 1 1 2 2 2 2 2 2 3 4 5 6 6 6 8 7 7 5 7 6 7 8 8 8 8 8 8 9 10 10 11 11 12 12 13 13 13 13 13 13 13 13 13 13
1 1 1 1 1 1 1 1 1 1 2 2 3 4 6 8 6 6 6 7 6 6 6 6 5 6 7 7 9 10 10 11 11 12 12 12 12 13 13 13 13 13 13 13 13
0 0 -0 -0 -0 0 0 0 0 1 1 1 1 2 5 5 5 5 4 5 5 6 5 5 5 6 6 7 8 9 10 10 11 11 12 12 12 12 13 13 13 13 13 13 13
-0 -0 -0 -0 -1 -1 -0 -0 -1 -1 -0 -0 0 -0 2 3 4 4 4 4 4 5 5 5 6 6 5 7 8 9 10 10 10 11 11 12 12 12 12 13 13 12 12 12 13
-1 -1 -1 -2 -2 -2 -1 -1 -2 -2 -2 -1 -0 -3 0 -1 -0 -0 -0 -0 2 3 3 2 3 3 4 7 8 9 9 10 10 12 12 12 12 12 12 13 13 13 13 12 12
-2 -2 -2 -2 -2 -2 -1 -1 -2 -3 -4 -4 -2 -3 -1 -1 -1 -0 -0 -0 -0 0 1 2 3 4 7 6 8 9 10 10 11 12 12 12 12 12 13 13 13 13 13 12 12
-2 -2 -2 -2 -2 -2 -2 -2 -5 -4 -3 -2 -1 -0 -0 0 -2 -1 -1 -0 0 1 1 2 3 7 5 6 7 8 9 10 11 12 12 12 13 13 13 13 13 13 13 12 12
-2 -2 -2 -3 -2 -3 -3 -5 -5 -6 -5 -2 0 -2 -1 -1 -1 -1 -1 -0 -0 1 2 3 4 4 5 6 7 8 9 9 10 11 11 12 12 12 13 13 13 13 13 12 12
-3 -3 -3 -3 -3 -3 -5 -5 -6 -6 -6 -1 -1 -1 -1 -1 -0 -0 -0 -0 0 0 2 3 4 4 6 6 7 8 9 9 10 10 11 11 13 12 12 13 13 13 12 12 12
-3 -3 -3 -3 -3 -4 -5 -6 -6 -6 -2 0 -2 -1 -2 -1 -0 0 -0 -0 0 1 1 2 3 4 5 6 7 8 9 10 10 11 11 11 12 12 12 13 13 13 13 12 12
-3 -3 -3 -4 -4 -6 -6 -7 -7 -6 -3 -3 -2 -3 -2 -1 -1 -1 0 -0 0 1 1 2 3 4 5 6 7 8 8 9 10 11 12 11 11 12 12 12 13 13 13 13 12
-2 -3 -3 -3 -4 -5 -5 -6 -6 -5 -3 -2 -1 -1 -1 -1 -1 -2 0 0 -0 -1 2 2 2 3 4 5 6 7 8 10 10 11 12 12 12 12 12 12 13 13 13 12 12
-2 -2 -2 -4 -5 -5 -5 -6 -5 -5 -3 -2 -2 -2 -1 -1 -0 0 -0 -0 1 1 0 -0 1 3 3 5 6 7 8 10 9 11 12 11 12 12 12 13 13 13 13 12 12
-2 -2 -4 -5 -5 -5 -6 -5 -5 -4 -3 -3 -2 -4 -4 -3 -2 -1 0 0 1 -0 -1 -1 1 3 3 4 5 7 8 9 10 12 13 14 13 13 13 13 13 13 12 12 11
-2 -2 -4 -5 -4 -4 -5 -5 -4 -3 -3 -3 -3 -4 -4 -3 -3 -3 -2 -3 -1 -1 -2 -2 -1 0 2 4 5 6 8 9 10 10 11 13 14 15 14 14 14 13 12 11 11
-2 -4 -3 -5 -4 -6 -6 -5 -3 -3 -3 -3 -3 -4 -4 -4 -3 -3 -3 -2 -2 -1 -2 -2 -2 0 1 4 5 6 7 9 10 11 12 13 15 15 14 14 14 13 12 11 11
-2 -4 -4 -5 -5 -6 -6 -5 -4 -4 -3 -3 -3 -3 -4 -5 -4 -3 -2 -2 -3 -3 -3 -2 -3 -1 1 3 5 6 7 8 10 10 11 13 14 14 14 14 14 13 12 12 11
-3 -4 -4 -5 -6 -6 -6 -5 -4 -4 -3 -4 -3 -3 -4 -5 -5 -5 -5 -5 -4 -3 -4 -4 -2 -1 1 2 3 4 7 8 9 11 11 13 14 13 13 13 13 13 12 12 11
-3 -5 -5 -5 -5 -6 -6 -6 -5 -5 -5 -4 -4 -4 -5 -5 -4 -4 -5 -4 -4 -3 -4 -5 -4 -2 0 2 -1 3 6 8 9 10 11 12 13 13 13 13 13 13 12 11 11
-3 -5 -6 -5 -6 -6 -6 -6 -5 -5 -5 -5 -5 -4 -4 -4 -3 -3 -4 -4 -4 -4 -5 -5 -4 -4 -2 -2 -3 -2 1 7 9 10 11 12 13 13 12 12 12 11 11 10 9
-4 -4 -4 -3 -6 -5 -6 -6 -6 -5 -6 -6 -6 -5 -5 -5 -5 -4 -4 -4 -4 -5 -4 -4 -4 -3 -3 -1 -2 -3 0 5 10 11 11 11 14 13 12 11 11 10 10 10 9
-3 -4 -5 -4 -6 -5 -5 -6 -6 -6 -6 -6 -5 -5 -6 -6 -5 -6 -5 -4 -5 -4 -4 -4 -3 -3 -1 -0 -3 -1 3 5 10 11 11 12 13 12 11 11 11 10 10 9 9

GFSSW_700_temp_033.txt.gz
Temp
6 6 6 6 6 7 7 7 7 7 7 8 8 8 8 9 9 9 10 10 9 9 10 10 10 10 9 10 9 10 8 9 12 13 15 14 14 14 15 14 14 14 14 14 14
6 6 6 6 6 6 6 7 7 7 7 7 7 8 8 9 9 9 9 9 9 9 9 9 10 9 9 9 9 8 8 8 13 13 13 13 13 14 14 14 14 14 14 14 14
5 5 6 6 6 7 7 7 7 7 7 7 8 8 8 8 9 9 9 9 9 8 8 8 8 8 9 9 9 9 10 10 11 12 12 12 13 13 14 14 14 13 13 14 13
3 3 4 4 4 5 6 6 6 6 7 7 8 8 8 8 8 8 9 9 9 9 8 8 8 8 8 8 9 9 10 9 11 11 11 12 12 12 13 13 13 13 13 13 13
2 2 2 2 2 2 3 3 4 5 5 6 6 7 7 8 10 7 7 7 8 8 9 8 8 8 8 8 8 9 10 9 10 11 11 11 12 12 12 13 13 13 13 13 13
2 1 1 1 1 1 1 1 2 2 3 3 4 4 6 8 7 7 6 7 6 6 7 7 8 8 8 7 8 9 8 9 9 10 10 11 11 12 12 12 13 13 13 13 13
1 1 1 1 1 1 1 1 1 1 1 1 2 3 5 7 5 6 5 6 7 7 5 7 6 6 6 7 8 8 8 8 9 9 10 11 11 11 12 12 12 12 13 13 13
0 -0 -0 -0 -0 -0 -0 0 0 0 1 1 1 2 5 4 5 4 5 5 4 5 6 6 5 4 4 5 6 7 7 8 9 9 10 10 11 11 11 12 12 12 12 12 13
-0 -0 -0 -1 -1 -1 -1 -0 -1 -1 -1 -1 0 0 2 2 3 3 4 3 3 4 4 4 5 4 5 5 5 6 6 7 8 9 9 10 11 11 11 11 12 12 12 12 12
-1 -1 -1 -1 -1 -1 -1 -1 -2 -2 -2 -2 -2 -2 -0 -0 -0 -1 0 1 1 2 3 2 3 4 5 5 5 6 7 7 8 9 10 10 10 11 12 12 12 12 13 13 13
-1 -0 -0 -0 -1 -1 -1 -1 -0 -2 -3 -4 -2 -2 0 -1 -1 -1 -0 -0 -0 -0 0 1 1 3 7 5 6 6 7 8 8 8 9 10 10 11 12 12 12 12 12 13 13
-1 -1 -2 -1 -2 -2 -2 -2 -5 -5 -3 -0 -2 -1 -1 -0 -2 -1 -1 -1 -0 -0 -0 0 1 5 3 4 4 5 7 7 8 9 10 10 11 11 12 12 12 12 13 13 13
-1 -1 -2 -2 -2 -3 -4 -5 -5 -5 -5 -0 -1 -1 -2 -2 -2 -1 -1 -1 -1 -0 0 1 1 2 2 3 4 5 5 6 7 8 9 10 10 11 12 12 12 12 12 13 13
-1 -2 -1 -2 -2 -3 -4 -5 -5 -5 -5 -3 -2 -2 -2 -1 -1 -1 -0 -1 -1 -1 -0 0 1 2 3 3 4 4 5 6 7 8 8 9 9 10 11 11 12 12 12 13 13
-1 -1 -2 -2 -3 -4 -4 -4 -4 -5 -5 -4 -2 -2 -2 -2 -2 -1 -0 -0 -0 -0 -0 0 1 2 3 3 4 5 5 6 7 8 8 9 10 10 11 11 11 12 13 13 13
-1 -1 -1 -2 -2 -4 -4 -4 -5 -5 -5 -3 -2 -2 -1 -1 -1 -1 -1 -1 -0 0 0 0 1 1 2 3 4 5 6 6 7 8 7 9 9 10 10 11 11 12 12 12 13
-0 -1 -1 -1 -2 -4 -4 -4 -5 -5 -4 -2 -2 -2 -2 -2 -1 -1 -1 -2 -2 -1 0 1 1 1 2 2 3 4 5 5 5 6 6 9 9 10 11 11 11 12 12 13 13
-0 -1 -1 -2 -2 -3 -4 -4 -5 -4 -3 -2 -2 -2 -3 -3 -3 -2 -2 -1 -0 -0 -1 -1 0 1 2 2 2 4 5 5 3 5 7 8 9 10 11 12 12 12 12 13 13
-0 -1 -2 -2 -3 -3 -3 -5 -5 -5 -3 -3 -3 -2 -3 -3 -3 -3 -2 -1 -0 -1 -2 -1 -0 0 1 1 3 4 4 6 6 7 8 9 10 12 12 13 13 12 12 12 12
-1 -1 -1 -3 -4 -3 -4 -5 -5 -4 -4 -5 -3 -3 -3 -4 -4 -4 -3 -2 -1 -1 -2 -1 -1 -0 1 1 2 2 4 5 6 4 4 9 10 11 13 13 14 13 12 12 12
-1 -2 -2 -4 -4 -4 -5 -5 -5 -4 -4 -4 -3 -3 -3 -4 -4 -4 -3 -3 -3 -2 -2 -2 -2 -1 -1 -0 2 3 4 4 5 7 6 6 9 12 13 14 14 13 13 13 12
-2 -3 -4 -4 -4 -5 -5 -5 -5 -5 -4 -4 -4 -4 -5 -4 -4 -5 -4 -3 -4 -4 -3 -2 -3 -2 -2 1 2 1 1 4 4 6 8 8 9 12 13 14 14 14 13 12 12
-2 -3 -4 -5 -5 -5 -5 -5 -5 -5 -4 -5 -5 -4 -4 -4 -5 -5 -5 -4 -4 -4 -4 -4 -3 -4 -1 1 2 1 2 4 5 6 7 7 9 12 12 14 14 13 13 12 12
-3 -4 -4 -4 -5 -6 -6 -5 -5 -4 -5 -5 -5 -4 -5 -5 -4 -4 -5 -4 -4 -4 -4 -4 -5 -4 -3 -2 -3 -2 1 2 3 5 7 8 9 11 12 13 13 13 13 12 12
-4 -4 -5 -5 -4 -5 -6 -5 -5 -6 -5 -5 -5 -5 -5 -5 -5 -4 -4 -4 -4 -5 -4 -4 -4 -3 -3 -3 -3 -1 -1 1 -0 3 5 9 10 11 12 12 13 13 13 12 11
-4 -4 -3 -3 -5 -6 -6 -5 -5 -5 -6 -5 -6 -5 -5 -5 -6 -6 -5 -5 -5 -4 -4 -4 -4 -4 -3 -2 -2 -0 1 1 2 4 4 8 9 10 12 12 12 12 12 12 11
-3 -4 -4 -4 -6 -6 -6 -6 -6 -6 -5 -6 -6 -5 -4 -5 -5 -5 -5 -4 -4 -4 -4 -5 -4 -4 -3 -1 -2 -1 1 3 4 5 6 7 9 10 11 10 11 11 11 11 11